This is the latest recevied weather packets stored in our database for station/object OK1FET-5. If no packets are shown the sender has not sent any weather packets the latest 10 day(s).
| Time | Temp. | Humidity | Pressure | Rain* | Wind** | Luminosity | Snow |
|---|---|---|---|---|---|---|---|
| 1777024887 | 21.67° C | 31% | 1018.9 hPa | - | - | - | - |
| 1777024592 | 21.11° C | 33% | 1018.9 hPa | - | - | - | - |
| 1777024297 | 20.56° C | 35% | 1018.9 hPa | - | - | - | - |
| 1777024002 | 21.11° C | 33% | 1019 hPa | - | - | - | - |
| 1777023707 | 20.56° C | 32% | 1019 hPa | - | - | - | - |
| 1777023116 | 20.56° C | 34% | 1019 hPa | - | - | - | - |
| 1777022821 | 21.11° C | 33% | 1019 hPa | - | - | - | - |
| 1777022525 | 21.11° C | 36% | 1019.1 hPa | - | - | - | - |
| 1777022230 | 21.11° C | 35% | 1019.1 hPa | - | - | - | - |
| 1777021935 | 20.56° C | 37% | 1019.2 hPa | - | - | - | - |
| 1777021640 | 20.56° C | 36% | 1019.3 hPa | - | - | - | - |
| 1777021344 | 21.11° C | 35% | 1019.3 hPa | - | - | - | - |
| 1777021049 | 21.11° C | 34% | 1019.2 hPa | - | - | - | - |
| 1777020754 | 21.11° C | 36% | 1019.4 hPa | - | - | - | - |
| 1777020459 | 21.67° C | 40% | 1019.3 hPa | - | - | - | - |
| 1777019869 | 20° C | 42% | 1019.4 hPa | - | - | - | - |
| 1777019573 | 20° C | 37% | 1019.4 hPa | - | - | - | - |
| 1777019278 | 19.44° C | 41% | 1019.5 hPa | - | - | - | - |
| 1777018983 | 19.44° C | 41% | 1019.5 hPa | - | - | - | - |
| 1777018688 | 19.44° C | 38% | 1019.5 hPa | - | - | - | - |
| 1777018098 | 19.44° C | 41% | 1019.4 hPa | - | - | - | - |
| 1777017803 | 19.44° C | 43% | 1019.5 hPa | - | - | - | - |
| 1777017508 | 18.89° C | 45% | 1019.5 hPa | - | - | - | - |
| 1777017213 | 18.89° C | 47% | 1019.6 hPa | - | - | - | - |
| 1777016918 | 18.89° C | 48% | 1019.6 hPa | - | - | - | - |
* Rain since midnight (hover to see other rain measurements)
** Current wind speed in m/s (hover to see current wind gust speed)